Location: Unspecified
(43.4680°N, 87.1740°E)
Time: 04:38:58
(UTC+00:00)

ISS - Pass Details

Date: 30 September 2021
Orbit: 417 x 423 km, 51.6° (Epoch: 20 October)

Event Time Altitude Azimuth Distance (km) Brightness Sun altitude
Rises 12:47:55 0° 302° (WNW) 2,365 1.3 -10.5°
Reaches altitude 10° 12:50:15 10° 316° (NW) 1,501 -0.2 -11.0°
Maximum altitude 12:53:08 26° 15° (NNE) 878 -2.2 -11.5°
Enters shadow 12:55:08 15° 63° (ENE) 1,219 -1.9 -11.8°
